Location: Larkspur
(54.4391°N, 113.7691°W)
Time: 12:07:12
(UTC+00:00)

VELOX 1 - Visible Passes

Search period start: 08 December 2023 00:00
Search period end: 18 December 2023 00:00
Orbit: 610 x 625 km, 98.4° (Epoch: 08 December)

Date Brightness Start Highest point End Pass type
(mag) Time Alt. Az. Time Alt. Az. Time Alt. Az.
08 Dec ? 12:37:32 10° ESE 12:40:56 23° ENE 12:44:21 10° N visible
08 Dec ? 14:12:26 10° S 14:16:39 57° WSW 14:20:55 10° NNW visible
09 Dec ? 12:53:36 10° ESE 12:57:21 30° ENE 13:01:08 10° N visible
09 Dec ? 14:29:14 10° S 14:33:17 41° W 14:37:22 10° NNW visible
10 Dec ? 13:09:48 10° SE 13:13:48 40° ENE 13:17:51 10° N visible
10 Dec ? 14:46:10 10° SSW 14:49:56 30° W 14:53:45 10° NNW visible
11 Dec ? 11:53:49 10° ENE 11:55:08 11° NE 11:56:27 10° NNE visible
11 Dec ? 13:26:06 10° SE 13:30:17 55° ENE 13:34:30 10° N visible
12 Dec ? 12:09:06 10° E 12:11:27 15° NE 12:13:47 10° NNE visible
12 Dec ? 13:42:30 10° SSE 13:46:47 77° ENE 13:51:06 10° NNW visible
13 Dec ? 12:24:48 10° E 12:27:46 19° NE 12:30:46 10° N visible
13 Dec ? 13:59:02 10° SSE 14:03:18 77° WSW 14:07:38 10° NNW visible
14 Dec ? 12:40:42 10° ESE 12:44:07 24° ENE 12:47:36 10° N visible
14 Dec ? 14:15:40 10° S 14:19:52 55° WSW 14:24:07 10° NNW visible
15 Dec ? 12:56:44 10° SE 13:00:31 31° ENE 13:04:20 10° N visible
15 Dec ? 14:32:26 10° SSW 14:36:28 39° W 14:40:32 10° NNW visible
16 Dec ? 13:12:54 10° SE 13:16:56 42° ENE 13:21:00 10° N visible
16 Dec ? 14:49:20 10° SSW 14:53:05 29° W 14:56:52 10° NW visible
17 Dec ? 11:56:44 10° ENE 11:58:13 12° NE 11:59:41 10° NNE visible
17 Dec ? 13:29:10 10° SSE 13:33:22 57° ENE 13:37:37 10° N visible
17 Dec ? 15:06:27 10° SW 15:09:44 21° W 15:13:04 10° NW visible
